Time,TemperatureF,DewpointF,PressureIn,WindDirection,WindDirectionDegrees,WindSpeedMPH,WindSpeedGustMPH,Humidity,HourlyPrecipIn,Conditions,Clouds,dailyrainin,SoftwareType,DateUTC
2013-01-19 00:00:00,55.3,47.9,30.27,North,353,3.0,6.0,76,0.00,,---,0.00,VWS V14.01,2013-01-19 05:00:00,
2013-01-19 00:02:00,55.3,47.9,30.27,NNW,328,0.0,4.0,76,0.00,,---,0.00,VWS V14.01,2013-01-19 05:02:00,
2013-01-19 00:03:00,55.3,47.9,30.27,NNW,335,0.0,4.0,76,0.00,,---,0.00,VWS V14.01,2013-01-19 05:03:00,
2013-01-19 00:08:00,55.4,47.6,30.27,North,0,1.0,4.0,75,0.00,,---,0.00,VWS V14.01,2013-01-19 05:08:00,
2013-01-19 00:13:00,55.4,48.3,30.27,NW,326,0.0,4.0,77,0.00,,---,0.00,VWS V14.01,2013-01-19 05:13:00,
2013-01-19 00:19:00,55.4,48.3,30.26,NW,305,0.0,4.0,77,0.00,,---,0.00,VWS V14.01,2013-01-19 05:19:00,
2013-01-19 00:24:00,55.3,48.2,30.26,NNW,343,0.0,4.0,77,0.00,,---,0.00,VWS V14.01,2013-01-19 05:24:00,
2013-01-19 00:29:00,55.3,48.6,30.26,WNW,292,0.0,5.0,78,0.00,,---,0.00,VWS V14.01,2013-01-19 05:29:00,
2013-01-19 00:30:00,55.3,48.2,30.26,WNW,292,0.0,5.0,77,0.00,,---,0.00,VWS V14.01,2013-01-19 05:30:00,
2013-01-19 00:37:00,55.1,48.4,30.26,NW,312,0.0,3.0,78,0.00,,---,0.00,VWS V14.01,2013-01-19 05:37:00,
2013-01-19 00:42:00,55.0,48.3,30.26,West,264,0.0,3.0,78,0.00,,---,0.00,VWS V14.01,2013-01-19 05:42:00,
2013-01-19 00:47:00,55.0,48.6,30.26,NW,326,0.0,3.0,79,0.00,,---,0.00,VWS V14.01,2013-01-19 05:47:00,
2013-01-19 00:52:00,54.7,48.7,30.26,NW,305,1.0,3.0,80,0.00,,---,0.00,VWS V14.01,2013-01-19 05:52:00,
2013-01-19 00:59:00,54.7,48.7,30.26,NW,306,0.0,3.0,80,0.00,,---,0.00,VWS V14.01,2013-01-19 05:59:00,
2013-01-19 01:00:00,54.7,48.7,30.26,SSW,199,0.0,3.0,80,0.00,,---,0.00,VWS V14.01,2013-01-19 06:00:00,
2013-01-19 01:04:00,54.7,48.7,30.26,SSW,202,0.0,0.0,80,0.00,,---,0.00,VWS V14.01,2013-01-19 06:04:00,
2013-01-19 01:09:00,54.7,49.0,30.26,NW,311,0.0,0.0,81,0.00,,---,0.00,VWS V14.01,2013-01-19 06:09:00,
2013-01-19 01:14:00,54.8,48.8,30.26,North,354,1.0,3.0,80,0.00,,---,0.00,VWS V14.01,2013-01-19 06:14:00,
2013-01-19 01:19:00,55.1,49.0,30.25,WNW,301,0.0,3.0,80,0.00,,---,0.00,VWS V14.01,2013-01-19 06:19:00,
2013-01-19 01:24:00,55.3,48.9,30.25,WSW,258,0.0,3.0,79,0.00,,---,0.00,VWS V14.01,2013-01-19 06:24:00,
2013-01-19 01:29:00,55.6,49.2,30.25,WNW,288,1.0,5.0,79,0.00,,---,0.00,VWS V14.01,2013-01-19 06:29:00,
2013-01-19 01:30:00,55.6,49.2,30.25,WNW,288,0.0,5.0,79,0.00,,---,0.00,VWS V14.01,2013-01-19 06:30:00,
2013-01-19 01:35:00,55.6,49.2,30.25,NW,305,0.0,5.0,79,0.00,,---,0.00,VWS V14.01,2013-01-19 06:35:00,
2013-01-19 01:42:00,55.4,49.0,30.25,WNW,291,0.0,5.0,79,0.00,,---,0.00,VWS V14.01,2013-01-19 06:42:00,
2013-01-19 01:47:00,55.4,49.3,30.25,WNW,299,0.0,5.0,80,0.00,,---,0.00,VWS V14.01,2013-01-19 06:47:00,
2013-01-19 01:52:00,55.1,49.0,30.25,WNW,302,1.0,5.0,80,0.00,,---,0.00,VWS V14.01,2013-01-19 06:52:00,
2013-01-19 01:57:00,54.8,48.8,30.25,WNW,302,0.0,5.0,80,0.00,,---,0.00,VWS V14.01,2013-01-19 06:57:00,
2013-01-19 02:00:00,54.7,48.7,30.25,North,357,0.0,5.0,80,0.00,,---,0.00,VWS V14.01,2013-01-19 07:00:00,
2013-01-19 02:02:00,54.5,48.5,30.25,NNW,343,0.0,5.0,80,0.00,,---,0.00,VWS V14.01,2013-01-19 07:02:00,
2013-01-19 02:07:00,54.4,48.4,30.25,NW,326,0.0,5.0,80,0.00,,---,0.00,VWS V14.01,2013-01-19 07:07:00,
2013-01-19 02:12:00,54.2,48.5,30.25,NW,326,0.0,5.0,81,0.00,,---,0.00,VWS V14.01,2013-01-19 07:12:00,
2013-01-19 02:17:00,54.1,48.4,30.25,NW,315,0.0,5.0,81,0.00,,---,0.00,VWS V14.01,2013-01-19 07:17:00,
2013-01-19 02:24:00,54.1,48.7,30.25,West,261,0.0,5.0,82,0.00,,---,0.00,VWS V14.01,2013-01-19 07:24:00,
2013-01-19 02:29:00,53.9,48.5,30.25,SW,233,0.0,5.0,82,0.00,,---,0.00,VWS V14.01,2013-01-19 07:29:00,
2013-01-19 02:30:00,53.9,48.5,30.25,SW,233,0.0,5.0,82,0.00,,---,0.00,VWS V14.01,2013-01-19 07:30:00,
2013-01-19 02:34:00,53.8,48.8,30.25,SSW,212,0.0,0.0,83,0.00,,---,0.00,VWS V14.01,2013-01-19 07:34:00,
2013-01-19 02:39:00,53.8,48.8,30.25,West,271,0.0,3.0,83,0.00,,---,0.00,VWS V14.01,2013-01-19 07:39:00,
2013-01-19 02:52:00,54.1,49.1,30.25,WNW,288,0.0,3.0,83,0.00,,---,0.00,VWS V14.01,2013-01-19 07:52:00,
2013-01-19 02:57:00,54.1,48.7,30.25,West,281,2.0,5.0,82,0.00,,---,0.00,VWS V14.01,2013-01-19 07:57:00,
2013-01-19 03:00:00,53.6,47.9,30.25,West,260,0.0,5.0,81,0.00,,---,0.00,VWS V14.01,2013-01-19 08:00:00,
2013-01-19 03:02:00,53.2,47.5,30.25,West,260,0.0,1.0,81,0.00,,---,0.00,VWS V14.01,2013-01-19 08:02:00,
2013-01-19 03:07:00,52.3,46.7,30.25,West,260,0.0,1.0,81,0.00,,---,0.00,VWS V14.01,2013-01-19 08:07:00,
2013-01-19 03:12:00,51.6,46.3,30.25,West,260,2.0,2.0,82,0.00,,---,0.00,VWS V14.01,2013-01-19 08:12:00,
2013-01-19 03:17:00,51.0,46.0,30.25,West,260,0.0,2.0,83,0.00,,---,0.00,VWS V14.01,2013-01-19 08:17:00,
2013-01-19 03:22:00,50.5,45.8,30.25,West,268,0.0,2.0,84,0.00,,---,0.00,VWS V14.01,2013-01-19 08:22:00,
2013-01-19 03:27:00,50.5,46.2,30.25,West,267,0.0,2.0,85,0.00,,---,0.00,VWS V14.01,2013-01-19 08:27:00,
2013-01-19 03:30:00,50.5,46.5,30.25,West,267,0.0,2.0,86,0.00,,---,0.00,VWS V14.01,2013-01-19 08:30:00,
2013-01-19 03:32:00,50.7,46.7,30.25,West,270,0.0,1.0,86,0.00,,---,0.00,VWS V14.01,2013-01-19 08:32:00,
2013-01-19 03:37:00,51.0,47.3,30.25,WSW,254,3.0,4.0,87,0.00,,---,0.00,VWS V14.01,2013-01-19 08:37:00,
2013-01-19 03:44:00,51.6,47.9,30.25,NNW,328,0.0,4.0,87,0.00,,---,0.00,VWS V14.01,2013-01-19 08:44:00,
2013-01-19 03:49:00,51.9,48.2,30.25,SSW,212,1.0,4.0,87,0.00,,---,0.00,VWS V14.01,2013-01-19 08:49:00,
2013-01-19 03:54:00,52.0,48.0,30.25,West,274,0.0,4.0,86,0.00,,---,0.00,VWS V14.01,2013-01-19 08:54:00,
2013-01-19 04:00:00,52.0,48.0,30.25,North,0,0.0,4.0,86,0.00,,---,0.00,VWS V14.01,2013-01-19 09:00:00,
2013-01-19 04:02:00,52.0,47.6,30.25,West,263,0.0,2.0,85,0.00,,---,0.00,VWS V14.01,2013-01-19 09:02:00,
2013-01-19 04:07:00,51.9,47.5,30.25,NW,304,0.0,2.0,85,0.00,,---,0.00,VWS V14.01,2013-01-19 09:07:00,
2013-01-19 04:12:00,51.9,47.5,30.25,West,260,0.0,2.0,85,0.00,,---,0.00,VWS V14.01,2013-01-19 09:12:00,
2013-01-19 04:17:00,51.9,47.5,30.25,West,265,0.0,2.0,85,0.00,,---,0.00,VWS V14.01,2013-01-19 09:17:00,
2013-01-19 04:22:00,51.9,47.5,30.25,West,274,1.0,3.0,85,0.00,,---,0.00,VWS V14.01,2013-01-19 09:22:00,
2013-01-19 04:27:00,51.9,47.5,30.25,WSW,248,0.0,3.0,85,0.00,,---,0.00,VWS V14.01,2013-01-19 09:27:00,
2013-01-19 04:30:00,51.7,47.3,30.24,WSW,258,0.0,5.0,85,0.00,,---,0.00,VWS V14.01,2013-01-19 09:30:00,
2013-01-19 04:32:00,51.7,47.0,30.24,South,174,0.0,2.0,84,0.00,,---,0.00,VWS V14.01,2013-01-19 09:32:00,
2013-01-19 04:37:00,51.7,47.3,30.24,West,272,0.0,2.0,85,0.00,,---,0.00,VWS V14.01,2013-01-19 09:37:00,
2013-01-19 04:42:00,51.6,47.2,30.24,NW,312,5.0,5.0,85,0.00,,---,0.00,VWS V14.01,2013-01-19 09:42:00,
2013-01-19 04:47:00,51.6,47.2,30.24,West,272,0.0,5.0,85,0.00,,---,0.00,VWS V14.01,2013-01-19 09:47:00,
2013-01-19 04:52:00,51.6,47.2,30.24,West,272,1.0,5.0,85,0.00,,---,0.00,VWS V14.01,2013-01-19 09:52:00,
2013-01-19 04:58:00,51.6,47.2,30.24,SE,145,0.0,5.0,85,0.00,,---,0.00,VWS V14.01,2013-01-19 09:58:00,
2013-01-19 05:00:00,51.6,47.2,30.24,SSW,199,0.0,5.0,85,0.00,,---,0.00,VWS V14.01,2013-01-19 10:00:00,
2013-01-19 05:05:00,51.6,47.6,30.24,WSW,251,1.0,1.0,86,0.00,,---,0.00,VWS V14.01,2013-01-19 10:05:00,
2013-01-19 05:10:00,51.7,47.7,30.24,West,263,0.0,4.0,86,0.00,,---,0.00,VWS V14.01,2013-01-19 10:10:00,
2013-01-19 05:15:00,51.7,47.7,30.24,West,264,0.0,4.0,86,0.00,,---,0.00,VWS V14.01,2013-01-19 10:15:00,
2013-01-19 05:20:00,51.9,47.8,30.24,WSW,241,0.0,4.0,86,0.00,,---,0.00,VWS V14.01,2013-01-19 10:20:00,
2013-01-19 05:30:00,52.0,47.6,30.25,WSW,253,0.0,5.0,85,0.00,,---,0.00,VWS V14.01,2013-01-19 10:30:00,
2013-01-19 05:33:00,52.2,47.8,30.25,WSW,256,0.0,0.0,85,0.00,,---,0.00,VWS V14.01,2013-01-19 10:33:00,
2013-01-19 05:38:00,52.2,47.8,30.25,WSW,256,0.0,0.0,85,0.00,,---,0.00,VWS V14.01,2013-01-19 10:38:00,
2013-01-19 05:46:00,52.3,47.9,30.25,WNW,291,0.0,5.0,85,0.00,,---,0.00,VWS V14.01,2013-01-19 10:46:00,
2013-01-19 05:51:00,52.5,47.8,30.25,NW,313,0.0,5.0,84,0.00,,---,0.00,VWS V14.01,2013-01-19 10:51:00,
2013-01-19 05:56:00,52.5,47.8,30.25,NW,326,0.0,5.0,84,0.00,,---,0.00,VWS V14.01,2013-01-19 10:56:00,
2013-01-19 06:00:00,52.5,47.8,30.25,West,268,0.0,5.0,84,0.00,,---,0.00,VWS V14.01,2013-01-19 11:00:00,
2013-01-19 06:01:00,52.3,47.6,30.25,WNW,282,0.0,0.0,84,0.00,,---,0.00,VWS V14.01,2013-01-19 11:01:00,
2013-01-19 06:09:00,52.2,47.8,30.25,NW,320,0.0,3.0,85,0.00,,---,0.00,VWS V14.01,2013-01-19 11:09:00,
2013-01-19 06:14:00,52.2,47.8,30.25,NNW,328,0.0,3.0,85,0.00,,---,0.00,VWS V14.01,2013-01-19 11:14:00,
2013-01-19 06:30:00,52.3,47.9,30.25,WNW,296,0.0,3.0,85,0.00,,---,0.00,VWS V14.01,2013-01-19 11:30:00,
2013-01-19 07:00:00,52.2,48.5,30.25,WNW,299,0.0,5.0,87,0.00,,---,0.00,VWS V14.01,2013-01-19 12:00:00,
2013-01-19 07:30:00,52.3,49.2,30.26,NW,325,0.0,5.0,89,0.00,,---,0.00,VWS V14.01,2013-01-19 12:30:00,
2013-01-19 07:47:00,52.6,49.5,30.25,WSW,258,0.0,6.0,89,0.00,,---,0.00,VWS V14.01,2013-01-19 12:47:00,
2013-01-19 07:48:00,52.6,49.5,30.25,NW,305,0.0,6.0,89,0.00,,---,0.00,VWS V14.01,2013-01-19 12:48:00,
2013-01-19 07:53:00,52.8,50.0,30.25,NW,309,0.0,6.0,90,0.00,,---,0.00,VWS V14.01,2013-01-19 12:53:00,
2013-01-19 07:58:00,52.9,50.0,30.25,WNW,302,0.0,6.0,90,0.00,,---,0.00,VWS V14.01,2013-01-19 12:58:00,
2013-01-19 08:00:00,52.9,50.0,30.26,NW,309,1.0,6.0,90,0.00,,---,0.00,VWS V14.01,2013-01-19 13:00:00,
2013-01-19 08:03:00,53.1,50.2,30.26,NNW,342,1.0,1.0,90,0.00,,---,0.00,VWS V14.01,2013-01-19 13:03:00,
2013-01-19 08:08:00,53.2,50.3,30.26,WNW,288,0.0,5.0,90,0.00,,---,0.00,VWS V14.01,2013-01-19 13:08:00,
2013-01-19 08:13:00,53.5,50.3,30.26,NW,304,0.0,5.0,89,0.00,,---,0.00,VWS V14.01,2013-01-19 13:13:00,
2013-01-19 08:22:00,53.8,50.6,30.26,NW,313,0.0,5.0,89,0.00,,---,0.00,VWS V14.01,2013-01-19 13:22:00,
2013-01-19 08:27:00,54.1,50.9,30.26,NNW,332,2.0,6.0,89,0.00,,---,0.00,VWS V14.01,2013-01-19 13:27:00,
2013-01-19 08:30:00,54.2,51.0,30.26,WNW,292,0.0,6.0,89,0.00,,---,0.00,VWS V14.01,2013-01-19 13:30:00,
2013-01-19 08:32:00,54.4,51.2,30.26,NW,315,0.0,3.0,89,0.00,,---,0.00,VWS V14.01,2013-01-19 13:32:00,
2013-01-19 08:37:00,54.7,51.2,30.26,NNW,328,0.0,3.0,88,0.00,,---,0.00,VWS V14.01,2013-01-19 13:37:00,
2013-01-19 08:42:00,55.0,51.5,30.26,WNW,301,0.0,3.0,88,0.00,,---,0.00,VWS V14.01,2013-01-19 13:42:00,
2013-01-19 08:47:00,55.1,51.3,30.27,NW,304,0.0,3.0,87,0.00,,---,0.00,VWS V14.01,2013-01-19 13:47:00,
2013-01-19 08:52:00,55.4,51.6,30.27,North,353,5.0,10.0,87,0.00,,---,0.00,VWS V14.01,2013-01-19 13:52:00,
2013-01-19 08:57:00,55.4,51.6,30.27,NW,313,0.0,10.0,87,0.00,,---,0.00,VWS V14.01,2013-01-19 13:57:00,
2013-01-19 09:00:00,55.6,51.8,30.28,NW,308,5.0,10.0,87,0.00,,---,0.00,VWS V14.01,2013-01-19 14:00:00,
2013-01-19 09:05:00,55.9,52.1,30.28,NNW,328,0.0,5.0,87,0.00,,---,0.00,VWS V14.01,2013-01-19 14:05:00,
2013-01-19 09:10:00,56.2,52.1,30.28,WSW,256,1.0,5.0,86,0.00,,---,0.00,VWS V14.01,2013-01-19 14:10:00,
2013-01-19 09:15:00,56.3,52.2,30.28,WNW,295,0.0,5.0,86,0.00,,---,0.00,VWS V14.01,2013-01-19 14:15:00,
2013-01-19 09:30:00,56.7,52.6,30.29,NW,319,0.0,6.0,86,0.00,,---,0.00,VWS V14.01,2013-01-19 14:30:00,
2013-01-19 09:32:00,56.7,52.6,30.29,NW,309,0.0,0.0,86,0.00,,---,0.00,VWS V14.01,2013-01-19 14:32:00,
2013-01-19 09:37:00,56.9,52.8,30.29,NW,311,0.0,6.0,86,0.00,,---,0.00,VWS V14.01,2013-01-19 14:37:00,
2013-01-19 09:44:00,56.9,52.8,30.29,NNW,332,0.0,7.0,86,0.00,,---,0.00,VWS V14.01,2013-01-19 14:44:00,
2013-01-19 09:49:00,56.6,52.5,30.29,NNW,337,0.0,7.0,86,0.00,,---,0.00,VWS V14.01,2013-01-19 14:49:00,
2013-01-19 09:54:00,56.7,52.6,30.29,West,267,2.0,7.0,86,0.00,,---,0.00,VWS V14.01,2013-01-19 14:54:00,
2013-01-19 09:59:00,56.7,52.6,30.29,North,6,0.0,7.0,86,0.00,,---,0.00,VWS V14.01,2013-01-19 14:59:00,
2013-01-19 10:00:00,56.7,52.6,30.29,WNW,301,0.0,7.0,86,0.00,,---,0.00,VWS V14.01,2013-01-19 15:00:00,
2013-01-19 10:06:00,56.9,52.8,30.29,North,0,3.0,5.0,86,0.00,,---,0.00,VWS V14.01,2013-01-19 15:06:00,
2013-01-19 10:11:00,57.0,52.9,30.29,NW,311,0.0,5.0,86,0.00,,---,0.00,VWS V14.01,2013-01-19 15:11:00,
2013-01-19 10:16:00,57.5,52.7,30.30,WNW,294,0.0,6.0,84,0.00,,---,0.00,VWS V14.01,2013-01-19 15:16:00,
2013-01-19 10:21:00,57.6,52.8,30.30,NW,316,0.0,6.0,84,0.00,,---,0.00,VWS V14.01,2013-01-19 15:21:00,
2013-01-19 10:28:00,58.1,53.0,30.30,WNW,298,0.0,6.0,83,0.00,,---,0.00,VWS V14.01,2013-01-19 15:28:00,
2013-01-19 10:30:00,58.3,53.2,30.29,NNW,336,0.0,6.0,83,0.00,,---,0.00,VWS V14.01,2013-01-19 15:30:00,
2013-01-19 10:33:00,58.3,52.8,30.29,NNW,339,0.0,6.0,82,0.00,,---,0.00,VWS V14.01,2013-01-19 15:33:00,
2013-01-19 10:38:00,58.4,52.9,30.29,WNW,299,0.0,6.0,82,0.00,,---,0.00,VWS V14.01,2013-01-19 15:38:00,
2013-01-19 10:43:00,58.4,52.9,30.29,NW,309,0.0,6.0,82,0.00,,---,0.00,VWS V14.01,2013-01-19 15:43:00,
2013-01-19 10:48:00,59.0,53.5,30.29,West,271,5.0,7.0,82,0.00,,---,0.00,VWS V14.01,2013-01-19 15:48:00,
2013-01-19 10:53:00,59.2,53.4,30.29,North,357,5.0,7.0,81,0.00,,---,0.00,VWS V14.01,2013-01-19 15:53:00,
2013-01-19 10:59:00,59.5,53.3,30.29,WNW,289,0.0,7.0,80,0.00,,---,0.00,VWS V14.01,2013-01-19 15:59:00,
2013-01-19 11:00:00,59.6,53.8,30.28,WNW,301,3.0,7.0,81,0.00,,---,0.00,VWS V14.01,2013-01-19 16:00:00,
2013-01-19 11:08:00,60.4,53.9,30.28,NW,308,0.0,5.0,79,0.00,,---,0.00,VWS V14.01,2013-01-19 16:08:00,
2013-01-19 11:13:00,60.4,53.5,30.28,WNW,289,0.0,5.0,78,0.00,,---,0.00,VWS V14.01,2013-01-19 16:13:00,
2013-01-19 11:18:00,60.2,54.0,30.28,NW,325,2.0,6.0,80,0.00,,---,0.00,VWS V14.01,2013-01-19 16:18:00,
2013-01-19 11:23:00,60.5,54.0,30.28,NNW,343,5.0,6.0,79,0.00,,---,0.00,VWS V14.01,2013-01-19 16:23:00,
2013-01-19 11:28:00,60.5,54.0,30.28,WNW,299,0.0,6.0,79,0.00,,---,0.00,VWS V14.01,2013-01-19 16:28:00,
2013-01-19 11:30:00,60.5,54.0,30.28,WNW,288,0.0,6.0,79,0.00,,---,0.00,VWS V14.01,2013-01-19 16:30:00,
2013-01-19 11:33:00,60.2,54.0,30.28,NNW,340,2.0,5.0,80,0.00,,---,0.00,VWS V14.01,2013-01-19 16:33:00,
2013-01-19 11:38:00,60.4,54.2,30.28,West,275,0.0,5.0,80,0.00,,---,0.00,VWS V14.01,2013-01-19 16:38:00,
2013-01-19 11:43:00,60.4,53.9,30.28,NNE,30,0.0,5.0,79,0.00,,---,0.00,VWS V14.01,2013-01-19 16:43:00,
2013-01-19 11:50:00,60.5,54.3,30.27,WNW,302,1.0,5.0,80,0.00,,---,0.00,VWS V14.01,2013-01-19 16:50:00,
2013-01-19 11:55:00,60.5,54.3,30.27,NNW,343,0.0,5.0,80,0.00,,---,0.00,VWS V14.01,2013-01-19 16:55:00,
2013-01-19 12:00:00,60.2,54.0,30.26,WSW,254,0.0,1.0,80,0.00,,---,0.00,VWS V14.01,2013-01-19 17:00:00,
2013-01-19 12:05:00,60.1,54.3,30.26,NNW,343,3.0,3.0,81,0.00,,---,0.00,VWS V14.01,2013-01-19 17:05:00,
2013-01-19 12:20:00,60.5,54.7,30.25,NW,325,4.0,6.0,81,0.00,,---,0.00,VWS V14.01,2013-01-19 17:20:00,
2013-01-19 12:25:00,60.7,54.5,30.25,NW,304,0.0,6.0,80,0.00,,---,0.00,VWS V14.01,2013-01-19 17:25:00,
2013-01-19 12:30:00,60.5,54.3,30.24,NNW,342,2.0,4.0,80,0.00,,---,0.00,VWS V14.01,2013-01-19 17:30:00,
2013-01-19 12:35:00,60.4,54.5,30.24,North,359,2.0,4.0,81,0.00,,---,0.00,VWS V14.01,2013-01-19 17:35:00,
2013-01-19 12:41:00,60.2,54.4,30.24,West,267,0.0,5.0,81,0.00,,---,0.00,VWS V14.01,2013-01-19 17:41:00,
2013-01-19 12:46:00,60.2,54.7,30.23,West,267,0.0,5.0,82,0.00,,---,0.00,VWS V14.01,2013-01-19 17:46:00,
2013-01-19 12:51:00,60.1,54.3,30.23,NW,320,0.0,5.0,81,0.00,,---,0.00,VWS V14.01,2013-01-19 17:51:00,
2013-01-19 12:56:00,59.8,54.3,30.23,WSW,240,0.0,5.0,82,0.00,,---,0.00,VWS V14.01,2013-01-19 17:56:00,
2013-01-19 13:00:00,59.6,54.4,30.22,WNW,295,0.0,5.0,83,0.00,,---,0.00,VWS V14.01,2013-01-19 18:00:00,
2013-01-19 13:01:00,59.6,54.4,30.22,West,278,0.0,3.0,83,0.00,,---,0.00,VWS V14.01,2013-01-19 18:01:00,
2013-01-19 13:07:00,59.6,54.4,30.22,WNW,298,0.0,3.0,83,0.00,,---,0.00,VWS V14.01,2013-01-19 18:07:00,
2013-01-19 13:12:00,59.9,54.4,30.22,WNW,291,0.0,6.0,82,0.00,,---,0.00,VWS V14.01,2013-01-19 18:12:00,
2013-01-19 13:17:00,59.9,54.1,30.22,NW,305,0.0,6.0,81,0.00,,---,0.00,VWS V14.01,2013-01-19 18:17:00,
2013-01-19 13:27:00,59.5,54.0,30.22,WNW,302,0.0,6.0,82,0.00,,---,0.00,VWS V14.01,2013-01-19 18:27:00,
2013-01-19 13:30:00,59.5,54.3,30.20,NW,313,3.0,6.0,83,0.00,,---,0.00,VWS V14.01,2013-01-19 18:30:00,
2013-01-19 13:32:00,59.5,54.0,30.20,WNW,287,0.0,4.0,82,0.00,,---,0.00,VWS V14.01,2013-01-19 18:32:00,
2013-01-19 13:37:00,59.5,54.3,30.20,WNW,288,0.0,4.0,83,0.00,,---,0.00,VWS V14.01,2013-01-19 18:37:00,
2013-01-19 13:42:00,59.3,53.8,30.20,North,8,2.0,4.0,82,0.00,,---,0.00,VWS V14.01,2013-01-19 18:42:00,
2013-01-19 13:47:00,59.2,53.7,30.20,WNW,285,0.0,4.0,82,0.00,,---,0.00,VWS V14.01,2013-01-19 18:47:00,
2013-01-19 13:52:00,58.9,53.4,30.20,NNW,333,2.0,8.0,82,0.00,,---,0.00,VWS V14.01,2013-01-19 18:52:00,
2013-01-19 13:57:00,58.6,53.8,30.20,NNW,335,0.0,8.0,84,0.00,,---,0.00,VWS V14.01,2013-01-19 18:57:00,
2013-01-19 14:00:00,58.6,53.8,30.19,NNW,335,0.0,8.0,84,0.00,,---,0.00,VWS V14.01,2013-01-19 19:00:00,
2013-01-19 14:03:00,58.4,53.6,30.19,SW,236,0.0,5.0,84,0.00,,---,0.00,VWS V14.01,2013-01-19 19:03:00,
2013-01-19 14:10:00,58.6,54.1,30.19,SSW,203,2.0,6.0,85,0.00,,---,0.00,VWS V14.01,2013-01-19 19:10:00,
2013-01-19 14:15:00,58.6,53.8,30.18,NW,306,0.0,6.0,84,0.00,,---,0.00,VWS V14.01,2013-01-19 19:15:00,
2013-01-19 14:20:00,58.4,53.6,30.18,WNW,288,0.0,6.0,84,0.00,,---,0.00,VWS V14.01,2013-01-19 19:20:00,
2013-01-19 14:25:00,58.3,53.5,30.18,NW,323,0.0,6.0,84,0.00,,---,0.00,VWS V14.01,2013-01-19 19:25:00,
2013-01-19 14:30:00,58.0,53.5,30.18,West,274,2.0,5.0,85,0.00,,---,0.00,VWS V14.01,2013-01-19 19:30:00,
2013-01-19 14:35:00,58.0,53.2,30.18,WNW,295,1.0,5.0,84,0.00,,---,0.00,VWS V14.01,2013-01-19 19:35:00,
2013-01-19 14:41:00,57.6,53.1,30.18,North,0,0.0,5.0,85,0.00,,---,0.00,VWS V14.01,2013-01-19 19:41:00,
2013-01-19 14:46:00,57.6,53.1,30.17,NNW,329,2.0,5.0,85,0.00,,---,0.00,VWS V14.01,2013-01-19 19:46:00,
2013-01-19 14:51:00,57.6,53.1,30.17,NW,323,0.0,5.0,85,0.00,,---,0.00,VWS V14.01,2013-01-19 19:51:00,
2013-01-19 14:57:00,57.8,53.3,30.17,NNW,342,0.0,5.0,85,0.00,,---,0.00,VWS V14.01,2013-01-19 19:57:00,
2013-01-19 15:00:00,58.0,53.5,30.16,North,356,0.0,5.0,85,0.00,,---,0.00,VWS V14.01,2013-01-19 20:00:00,
2013-01-19 15:02:00,58.0,53.5,30.16,WNW,302,0.0,0.0,85,0.00,,---,0.00,VWS V14.01,2013-01-19 20:02:00,
2013-01-19 15:07:00,58.0,53.5,30.16,NW,316,0.0,0.0,85,0.00,,---,0.00,VWS V14.01,2013-01-19 20:07:00,
2013-01-19 15:13:00,58.1,53.3,30.16,WNW,284,2.0,6.0,84,0.00,,---,0.00,VWS V14.01,2013-01-19 20:13:00,
2013-01-19 15:18:00,58.0,53.5,30.16,WNW,301,0.0,6.0,85,0.00,,---,0.00,VWS V14.01,2013-01-19 20:18:00,
2013-01-19 15:23:00,58.0,53.5,30.16,NW,316,0.0,6.0,85,0.00,,---,0.00,VWS V14.01,2013-01-19 20:23:00,
2013-01-19 15:28:00,57.8,53.7,30.16,NW,319,0.0,6.0,86,0.00,,---,0.00,VWS V14.01,2013-01-19 20:28:00,
2013-01-19 15:30:00,57.8,53.7,30.16,NNW,332,2.0,6.0,86,0.00,,---,0.00,VWS V14.01,2013-01-19 20:30:00,
2013-01-19 15:33:00,57.8,53.7,30.16,WNW,284,0.0,6.0,86,0.00,,---,0.00,VWS V14.01,2013-01-19 20:33:00,
2013-01-19 15:43:00,57.6,53.5,30.16,NW,315,2.0,6.0,86,0.00,,---,0.00,VWS V14.01,2013-01-19 20:43:00,
2013-01-19 15:48:00,57.6,53.5,30.16,NW,316,0.0,6.0,86,0.00,,---,0.00,VWS V14.01,2013-01-19 20:48:00,
2013-01-19 15:53:00,57.6,53.5,30.16,North,354,0.0,6.0,86,0.00,,---,0.00,VWS V14.01,2013-01-19 20:53:00,
2013-01-19 15:58:00,57.6,53.5,30.16,NNW,339,0.0,6.0,86,0.00,,---,0.00,VWS V14.01,2013-01-19 20:58:00,
2013-01-19 16:00:00,57.6,53.5,30.16,NNW,339,0.0,6.0,86,0.00,,---,0.00,VWS V14.01,2013-01-19 21:00:00,
2013-01-19 16:03:00,57.6,53.5,30.16,NNW,339,0.0,0.0,86,0.00,,---,0.00,VWS V14.01,2013-01-19 21:03:00,
2013-01-19 16:08:00,57.8,53.7,30.16,NNW,332,0.0,1.0,86,0.00,,---,0.00,VWS V14.01,2013-01-19 21:08:00,
2013-01-19 16:14:00,57.8,54.0,30.16,NNW,333,2.0,2.0,87,0.00,,---,0.00,VWS V14.01,2013-01-19 21:14:00,
2013-01-19 16:19:00,57.8,54.0,30.16,West,277,0.0,3.0,87,0.00,,---,0.00,VWS V14.01,2013-01-19 21:19:00,
2013-01-19 16:25:00,57.8,54.0,30.16,West,277,0.0,3.0,87,0.00,,---,0.00,VWS V14.01,2013-01-19 21:25:00,
2013-01-19 16:30:00,57.8,54.0,30.16,WSW,253,0.0,0.0,87,0.00,,---,0.00,VWS V14.01,2013-01-19 21:30:00,
2013-01-19 16:35:00,57.6,53.8,30.16,NW,308,0.0,2.0,87,0.00,,---,0.00,VWS V14.01,2013-01-19 21:35:00,
2013-01-19 16:42:00,57.6,53.8,30.16,West,270,0.0,2.0,87,0.00,,---,0.00,VWS V14.01,2013-01-19 21:42:00,
2013-01-19 16:47:00,57.6,54.1,30.16,West,275,0.0,2.0,88,0.00,,---,0.00,VWS V14.01,2013-01-19 21:47:00,
2013-01-19 16:52:00,57.6,54.1,30.16,West,271,0.0,3.0,88,0.00,,---,0.00,VWS V14.01,2013-01-19 21:52:00,
2013-01-19 16:57:00,57.6,54.1,30.16,West,271,0.0,3.0,88,0.00,,---,0.00,VWS V14.01,2013-01-19 21:57:00,
2013-01-19 17:00:00,57.6,54.1,30.16,SW,226,2.0,3.0,88,0.00,,---,0.00,VWS V14.01,2013-01-19 22:00:00,
2013-01-19 17:03:00,57.5,54.0,30.16,West,260,0.0,3.0,88,0.00,,---,0.00,VWS V14.01,2013-01-19 22:03:00,
2013-01-19 17:08:00,57.5,54.0,30.16,WNW,298,0.0,3.0,88,0.00,,---,0.00,VWS V14.01,2013-01-19 22:08:00,
2013-01-19 17:19:00,57.5,54.0,30.16,West,263,0.0,3.0,88,0.00,,---,0.00,VWS V14.01,2013-01-19 22:19:00,
2013-01-19 17:24:00,57.5,54.3,30.16,West,264,0.0,3.0,89,0.00,,---,0.00,VWS V14.01,2013-01-19 22:24:00,
2013-01-19 17:29:00,57.3,54.1,30.16,West,261,0.0,3.0,89,0.00,,---,0.00,VWS V14.01,2013-01-19 22:29:00,
2013-01-19 17:30:00,57.3,54.1,30.16,West,261,0.0,3.0,89,0.00,,---,0.00,VWS V14.01,2013-01-19 22:30:00,
2013-01-19 17:34:00,57.3,54.1,30.16,West,261,0.0,0.0,89,0.00,,---,0.00,VWS V14.01,2013-01-19 22:34:00,
2013-01-19 17:39:00,57.3,54.4,30.16,West,261,0.0,0.0,90,0.00,,---,0.00,VWS V14.01,2013-01-19 22:39:00,
2013-01-19 17:44:00,57.3,54.4,30.16,West,261,0.0,2.0,90,0.00,,---,0.00,VWS V14.01,2013-01-19 22:44:00,
2013-01-19 17:49:00,57.3,54.4,30.16,West,261,0.0,2.0,90,0.00,,---,0.00,VWS V14.01,2013-01-19 22:49:00,
2013-01-19 18:00:00,57.5,54.9,30.15,West,261,0.0,2.0,91,0.00,,---,0.00,VWS V14.01,2013-01-19 23:00:00,
2013-01-19 18:04:00,57.6,55.0,30.15,WSW,247,0.0,6.0,91,0.00,,---,0.00,VWS V14.01,2013-01-19 23:04:00,
2013-01-19 18:09:00,57.6,55.0,30.15,WSW,247,0.0,6.0,91,0.00,,---,0.00,VWS V14.01,2013-01-19 23:09:00,
2013-01-19 18:14:00,57.6,55.0,30.16,WSW,247,0.0,6.0,91,0.00,,---,0.00,VWS V14.01,2013-01-19 23:14:00,
2013-01-19 18:19:00,57.6,55.0,30.16,WSW,247,0.0,6.0,91,0.00,,---,0.00,VWS V14.01,2013-01-19 23:19:00,
2013-01-19 18:25:00,57.6,55.0,30.16,WSW,247,0.0,6.0,91,0.00,,---,0.00,VWS V14.01,2013-01-19 23:25:00,
2013-01-19 18:30:00,57.5,54.9,30.15,WSW,247,0.0,0.0,91,0.00,,---,0.00,VWS V14.01,2013-01-19 23:30:00,
2013-01-19 18:35:00,57.5,54.9,30.15,WSW,247,0.0,0.0,91,0.00,,---,0.00,VWS V14.01,2013-01-19 23:35:00,
2013-01-19 18:40:00,57.3,54.7,30.15,WSW,247,0.0,2.0,91,0.00,,---,0.00,VWS V14.01,2013-01-19 23:40:00,
2013-01-19 18:45:00,57.3,54.7,30.16,WSW,247,0.0,2.0,91,0.00,,---,0.00,VWS V14.01,2013-01-19 23:45:00,
2013-01-19 18:50:00,57.2,54.6,30.16,WSW,257,0.0,2.0,91,0.00,,---,0.00,VWS V14.01,2013-01-19 23:50:00,
2013-01-19 18:55:00,57.2,54.9,30.16,WSW,257,0.0,5.0,92,0.00,,---,0.00,VWS V14.01,2013-01-19 23:55:00,
2013-01-19 19:00:00,57.0,54.7,30.16,WSW,257,0.0,0.0,92,0.00,,---,0.00,VWS V14.01,2013-01-20 00:00:00,
2013-01-19 19:06:00,57.0,54.7,30.16,WSW,257,0.0,1.0,92,0.00,,---,0.00,VWS V14.01,2013-01-20 00:06:00,
2013-01-19 19:13:00,56.9,54.6,30.16,WSW,257,0.0,1.0,92,0.00,,---,0.00,VWS V14.01,2013-01-20 00:13:00,
2013-01-19 19:18:00,56.7,54.7,30.16,WSW,257,0.0,1.0,93,0.00,,---,0.00,VWS V14.01,2013-01-20 00:18:00,
2013-01-19 19:23:00,56.7,54.7,30.16,NE,40,0.0,1.0,93,0.00,,---,0.00,VWS V14.01,2013-01-20 00:23:00,
2013-01-19 19:28:00,56.6,54.6,30.16,NE,40,0.0,1.0,93,0.00,,---,0.00,VWS V14.01,2013-01-20 00:28:00,
2013-01-19 19:30:00,56.6,54.6,30.16,NE,40,0.0,1.0,93,0.00,,---,0.00,VWS V14.01,2013-01-20 00:30:00,
2013-01-19 19:33:00,56.5,54.5,30.16,NE,40,0.0,0.0,93,0.00,,---,0.00,VWS V14.01,2013-01-20 00:33:00,
2013-01-19 19:38:00,56.3,54.6,30.16,NE,40,0.0,0.0,94,0.00,,---,0.00,VWS V14.01,2013-01-20 00:38:00,
2013-01-19 19:43:00,56.3,54.6,30.16,NE,40,1.0,1.0,94,0.00,,---,0.00,VWS V14.01,2013-01-20 00:43:00,
2013-01-19 19:49:00,56.2,54.5,30.16,NE,38,0.0,1.0,94,0.00,,---,0.00,VWS V14.01,2013-01-20 00:49:00,
2013-01-19 19:54:00,56.0,54.3,30.16,NE,38,0.0,1.0,94,0.00,,---,0.00,VWS V14.01,2013-01-20 00:54:00,
2013-01-19 19:59:00,56.0,54.3,30.16,NE,38,0.0,2.0,94,0.00,,---,0.00,VWS V14.01,2013-01-20 00:59:00,
2013-01-19 20:00:00,56.0,54.3,30.16,NE,38,0.0,2.0,94,0.00,,---,0.00,VWS V14.01,2013-01-20 01:00:00,
2013-01-19 20:04:00,55.9,54.5,30.16,NE,38,0.0,0.0,95,0.00,,---,0.00,VWS V14.01,2013-01-20 01:04:00,
2013-01-19 20:09:00,55.9,54.5,30.16,NE,38,0.0,0.0,95,0.00,,---,0.00,VWS V14.01,2013-01-20 01:09:00,
2013-01-19 20:15:00,55.7,54.3,30.16,NE,37,0.0,2.0,95,0.00,,---,0.00,VWS V14.01,2013-01-20 01:15:00,
2013-01-19 20:20:00,55.7,54.3,30.16,NE,37,0.0,2.0,95,0.00,,---,0.00,VWS V14.01,2013-01-20 01:20:00,
2013-01-19 20:26:00,55.6,54.5,30.16,NE,37,0.0,2.0,96,0.00,,---,0.00,VWS V14.01,2013-01-20 01:26:00,
2013-01-19 20:30:00,55.6,54.5,30.16,NE,37,0.0,2.0,96,0.00,,---,0.00,VWS V14.01,2013-01-20 01:30:00,
2013-01-19 20:31:00,55.6,54.5,30.16,NE,37,0.0,0.0,96,0.00,,---,0.00,VWS V14.01,2013-01-20 01:31:00,
2013-01-19 20:36:00,55.6,54.5,30.16,NE,37,0.0,0.0,96,0.00,,---,0.00,VWS V14.01,2013-01-20 01:36:00,
2013-01-19 20:42:00,55.4,54.3,30.16,NE,37,0.0,0.0,96,0.00,,---,0.00,VWS V14.01,2013-01-20 01:42:00,
2013-01-19 20:47:00,55.4,54.3,30.15,NE,37,0.0,1.0,96,0.00,,---,0.00,VWS V14.01,2013-01-20 01:47:00,
2013-01-19 20:52:00,55.4,54.3,30.15,NE,37,0.0,1.0,96,0.00,,---,0.00,VWS V14.01,2013-01-20 01:52:00,
2013-01-19 20:57:00,55.3,54.2,30.15,NE,37,0.0,1.0,96,0.01,,---,0.01,VWS V14.01,2013-01-20 01:57:00,
2013-01-19 21:00:00,55.3,54.2,30.15,NE,37,0.0,1.0,96,0.01,,---,0.01,VWS V14.01,2013-01-20 02:00:00,
2013-01-19 21:02:00,55.1,54.0,30.15,NE,37,0.0,0.0,96,0.01,,---,0.01,VWS V14.01,2013-01-20 02:02:00,
2013-01-19 21:09:00,55.0,53.9,30.15,NE,37,0.0,0.0,96,0.01,,---,0.01,VWS V14.01,2013-01-20 02:09:00,
2013-01-19 21:14:00,55.1,54.3,30.15,NE,37,0.0,1.0,97,0.01,,---,0.01,VWS V14.01,2013-01-20 02:14:00,
2013-01-19 21:19:00,55.3,54.5,30.15,NNE,31,0.0,1.0,97,0.01,,---,0.01,VWS V14.01,2013-01-20 02:19:00,
2013-01-19 21:24:00,55.3,54.5,30.15,NNE,31,0.0,1.0,97,0.01,,---,0.01,VWS V14.01,2013-01-20 02:24:00,
2013-01-19 21:29:00,55.3,54.5,30.15,NNE,31,0.0,1.0,97,0.01,,---,0.01,VWS V14.01,2013-01-20 02:29:00,
2013-01-19 21:30:00,55.3,54.5,30.15,NNE,31,0.0,1.0,97,0.01,,---,0.01,VWS V14.01,2013-01-20 02:30:00,
2013-01-19 21:34:00,55.1,54.3,30.15,NNE,31,0.0,0.0,97,0.01,,---,0.01,VWS V14.01,2013-01-20 02:34:00,
2013-01-19 21:39:00,55.1,54.3,30.15,NNE,31,0.0,0.0,97,0.01,,---,0.01,VWS V14.01,2013-01-20 02:39:00,
2013-01-19 21:44:00,55.1,54.3,30.15,NE,56,0.0,0.0,97,0.01,,---,0.01,VWS V14.01,2013-01-20 02:44:00,
2013-01-19 21:49:00,55.1,54.3,30.15,NE,56,0.0,0.0,97,0.01,,---,0.01,VWS V14.01,2013-01-20 02:49:00,
2013-01-19 21:54:00,55.1,54.3,30.15,NE,56,0.0,1.0,97,0.01,,---,0.01,VWS V14.01,2013-01-20 02:54:00,
2013-01-19 21:59:00,55.1,54.3,30.14,NE,56,0.0,1.0,97,0.01,,---,0.01,VWS V14.01,2013-01-20 02:59:00,
2013-01-19 22:00:00,55.1,54.3,30.14,NE,56,0.0,1.0,97,0.01,,---,0.01,VWS V14.01,2013-01-20 03:00:00,
2013-01-19 22:04:00,55.1,54.5,30.14,NE,56,0.0,1.0,98,0.00,,---,0.01,VWS V14.01,2013-01-20 03:04:00,
2013-01-19 22:09:00,55.1,54.5,30.14,NE,56,0.0,1.0,98,0.00,,---,0.01,VWS V14.01,2013-01-20 03:09:00,
2013-01-19 22:14:00,55.1,54.3,30.14,NE,56,0.0,1.0,97,0.00,,---,0.01,VWS V14.01,2013-01-20 03:14:00,
2013-01-19 22:21:00,55.0,54.5,30.14,NE,56,0.0,1.0,98,0.00,,---,0.01,VWS V14.01,2013-01-20 03:21:00,
2013-01-19 22:26:00,55.0,54.5,30.14,NE,56,0.0,1.0,98,0.00,,---,0.01,VWS V14.01,2013-01-20 03:26:00,
2013-01-19 22:30:00,54.8,54.2,30.13,NE,56,0.0,1.0,98,0.00,,---,0.01,VWS V14.01,2013-01-20 03:30:00,
2013-01-19 22:32:00,54.8,54.2,30.13,NE,56,0.0,0.0,98,0.00,,---,0.01,VWS V14.01,2013-01-20 03:32:00,
2013-01-19 22:37:00,54.8,54.2,30.13,NE,56,0.0,0.0,98,0.00,,---,0.01,VWS V14.01,2013-01-20 03:37:00,
2013-01-19 22:42:00,54.8,54.2,30.13,NE,56,0.0,0.0,98,0.00,,---,0.01,VWS V14.01,2013-01-20 03:42:00,
2013-01-19 22:47:00,54.8,54.2,30.14,NE,56,0.0,0.0,98,0.00,,---,0.01,VWS V14.01,2013-01-20 03:47:00,
2013-01-19 22:52:00,54.8,54.2,30.14,NE,56,0.0,0.0,98,0.00,,---,0.01,VWS V14.01,2013-01-20 03:52:00,
2013-01-19 23:00:00,54.7,54.2,30.14,NE,56,0.0,0.0,98,0.00,,---,0.01,VWS V14.01,2013-01-20 04:00:00,
2013-01-19 23:05:00,54.7,54.2,30.14,NE,56,0.0,1.0,98,0.00,,---,0.01,VWS V14.01,2013-01-20 04:05:00,
2013-01-19 23:10:00,54.7,54.2,30.14,NE,56,0.0,1.0,98,0.00,,---,0.01,VWS V14.01,2013-01-20 04:10:00,
2013-01-19 23:15:00,54.5,54.0,30.14,NE,56,0.0,1.0,98,0.00,,---,0.01,VWS V14.01,2013-01-20 04:15:00,
2013-01-19 23:24:00,54.5,54.0,30.14,NE,56,0.0,1.0,98,0.00,,---,0.01,VWS V14.01,2013-01-20 04:24:00,
2013-01-19 23:29:00,54.4,53.8,30.14,NE,56,0.0,1.0,98,0.00,,---,0.01,VWS V14.01,2013-01-20 04:29:00,
2013-01-19 23:30:00,54.4,53.8,30.13,NE,56,0.0,1.0,98,0.00,,---,0.01,VWS V14.01,2013-01-20 04:30:00,
2013-01-19 23:34:00,54.4,54.1,30.13,NE,56,0.0,0.0,99,0.00,,---,0.01,VWS V14.01,2013-01-20 04:34:00,
2013-01-19 23:39:00,54.4,54.1,30.13,NE,56,0.0,0.0,99,0.00,,---,0.01,VWS V14.01,2013-01-20 04:39:00,
2013-01-19 23:44:00,54.4,54.1,30.12,NE,56,0.0,0.0,99,0.00,,---,0.01,VWS V14.01,2013-01-20 04:44:00,
2013-01-19 23:49:00,54.4,54.1,30.12,NE,56,0.0,1.0,99,0.00,,---,0.01,VWS V14.01,2013-01-20 04:49:00,
2013-01-19 23:54:00,54.4,54.1,30.12,NE,56,0.0,1.0,99,0.00,,---,0.01,VWS V14.01,2013-01-20 04:54:00,
2013-01-19 23:59:00,54.4,54.1,30.12,NE,56,0.0,1.0,99,0.00,,---,0.01,VWS V14.01,2013-01-20 04:59:00,